Location: Archemont
(49.1579°N, 1.7598°E)
Time: 02:13:27
(UTC+00:00)

S-56A Canister/Altair - Pass Details

Date: 24 April 2024
Orbit: 638 x 2488 km, 38.9° (Epoch: 21 May)

Event Time Altitude Azimuth Distance (km) Brightness Sun altitude
Rises 14:41:58 0° 204° (SSW) 2,939 11.1 39.8°
Reaches altitude 10° 14:45:25 10° 174° (S) 2,131 10.2 39.3°
Maximum altitude 14:47:33 13° 147° (SSE) 2,042 9.8 39.0°
Drops below altitude 10° 14:49:52 10° 121° (ESE) 2,370 9.9 38.7°
Sets 14:54:12 0° 95° (E) 3,630 10.6 38.0°
